,,PressureMeas_1m,,PRMeasQMR101_1,,RHStat155_1m_1,,SRMeasQMS101R_1m,,TAStat155_1m_1,,GenWind_1,,GenWind_1,
2018-12-03, 00:00:06,VALID,917.423,VALID,0.0,VALID,98.487,VALID,-0.009,VALID,19.816,VALID,127.0,VALID,0.0,
2018-12-03, 00:01:06,VALID,917.42,VALID,0.0,VALID,98.46,VALID,-0.02,VALID,19.824,VALID,126.0,VALID,0.0,
2018-12-03, 00:02:06,VALID,917.385,VALID,0.0,VALID,98.411,VALID,-0.029,VALID,19.819,VALID,124.0,VALID,0.0,
2018-12-03, 00:03:06,VALID,917.377,VALID,0.0,VALID,98.39,VALID,-0.015,VALID,19.822,VALID,125.0,VALID,0.0,
2018-12-03, 00:04:06,VALID,917.382,VALID,0.0,VALID,98.345,VALID,-0.029,VALID,19.84,VALID,117.0,VALID,0.0,
2018-12-03, 00:05:06,VALID,917.357,VALID,0.0,VALID,98.272,VALID,-0.024,VALID,19.84,VALID,111.0,VALID,0.0,
2018-12-03, 00:06:06,VALID,917.361,VALID,0.0,VALID,98.266,VALID,-0.024,VALID,19.841,VALID,114.0,VALID,0.0,
2018-12-03, 00:07:06,VALID,917.341,VALID,0.0,VALID,98.24,VALID,-0.029,VALID,19.856,VALID,115.0,VALID,0.0,
2018-12-03, 00:08:06,VALID,917.343,VALID,0.0,VALID,98.194,VALID,-0.021,VALID,19.87,VALID,115.0,VALID,0.0,
2018-12-03, 00:09:06,VALID,917.345,VALID,0.0,VALID,98.133,VALID,-0.028,VALID,19.887,VALID,111.0,VALID,0.0,
2018-12-03, 00:10:06,VALID,917.333,VALID,0.0,VALID,98.076,VALID,-0.011,VALID,19.895,VALID,105.0,VALID,0.0,
2018-12-03, 00:11:06,VALID,917.336,VALID,0.0,VALID,98.048,VALID,-0.009,VALID,19.904,VALID,106.0,VALID,0.0,
2018-12-03, 00:12:06,VALID,917.323,VALID,0.0,VALID,97.998,VALID,-0.004,VALID,19.9,VALID,104.0,VALID,0.0,
2018-12-03, 00:13:06,VALID,917.316,VALID,0.0,VALID,98.01,VALID,0.0,VALID,19.898,VALID,104.0,VALID,0.0,
2018-12-03, 00:14:06,VALID,917.283,VALID,0.0,VALID,98.025,VALID,-0.009,VALID,19.899,VALID,110.0,VALID,0.0,
2018-12-03, 00:15:06,VALID,917.27,VALID,0.0,VALID,98.016,VALID,-0.002,VALID,19.899,VALID,114.0,VALID,0.0,
2018-12-03, 00:16:06,VALID,917.233,VALID,0.0,VALID,98.001,VALID,-0.004,VALID,19.903,VALID,114.0,VALID,0.0,
2018-12-03, 00:17:06,VALID,917.203,VALID,0.0,VALID,97.974,VALID,-0.009,VALID,19.909,VALID,117.0,VALID,0.0,
2018-12-03, 00:18:06,VALID,917.182,VALID,0.0,VALID,97.957,VALID,-0.009,VALID,19.907,VALID,118.0,VALID,0.0,
2018-12-03, 00:19:06,VALID,917.188,VALID,0.0,VALID,97.949,VALID,-0.007,VALID,19.908,VALID,116.0,VALID,0.0,
2018-12-03, 00:20:06,VALID,917.179,VALID,0.0,VALID,97.941,VALID,-0.018,VALID,19.904,VALID,114.0,VALID,0.0,
2018-12-03, 00:21:06,VALID,917.162,VALID,0.0,VALID,97.942,VALID,-0.016,VALID,19.9,VALID,109.0,VALID,0.0,
2018-12-03, 00:22:06,VALID,917.18,VALID,0.0,VALID,97.984,VALID,0.005,VALID,19.894,VALID,108.0,VALID,0.0,
2018-12-03, 00:23:06,VALID,917.173,VALID,0.0,VALID,98.033,VALID,-0.011,VALID,19.895,VALID,104.0,VALID,0.0,
2018-12-03, 00:24:06,VALID,917.163,VALID,0.0,VALID,98.032,VALID,-0.014,VALID,19.89,VALID,103.0,VALID,0.0,
2018-12-03, 00:25:06,VALID,917.165,VALID,0.0,VALID,98.052,VALID,-0.012,VALID,19.888,VALID,105.0,VALID,0.0,
2018-12-03, 00:26:06,VALID,917.171,VALID,0.0,VALID,98.081,VALID,0.006,VALID,19.884,VALID,102.0,VALID,0.0,
2018-12-03, 00:27:06,VALID,917.151,VALID,0.0,VALID,98.087,VALID,0.008,VALID,19.888,VALID,96.0,VALID,0.0,
2018-12-03, 00:28:06,VALID,917.136,VALID,0.0,VALID,98.088,VALID,-0.01,VALID,19.886,VALID,99.0,VALID,0.0,
2018-12-03, 00:29:06,VALID,917.108,VALID,0.0,VALID,98.113,VALID,-0.001,VALID,19.885,VALID,97.0,VALID,0.0,
2018-12-03, 00:30:06,VALID,917.094,VALID,0.0,VALID,98.106,VALID,-0.015,VALID,19.88,VALID,108.0,VALID,0.0,
2018-12-03, 00:31:06,VALID,917.077,VALID,0.0,VALID,98.101,VALID,-0.022,VALID,19.875,VALID,100.0,VALID,0.0,
2018-12-03, 00:32:06,VALID,917.056,VALID,0.0,VALID,98.141,VALID,-0.011,VALID,19.874,VALID,96.0,VALID,0.0,
2018-12-03, 00:33:06,VALID,917.053,VALID,0.0,VALID,98.102,VALID,-0.006,VALID,19.871,VALID,92.0,VALID,0.0,
2018-12-03, 00:34:06,VALID,917.058,VALID,0.0,VALID,98.081,VALID,-0.016,VALID,19.876,VALID,87.0,VALID,0.0,
2018-12-03, 00:35:06,VALID,917.033,VALID,0.0,VALID,98.036,VALID,-0.018,VALID,19.885,VALID,96.0,VALID,0.0,
2018-12-03, 00:36:06,VALID,917.047,VALID,0.0,VALID,97.968,VALID,-0.005,VALID,19.892,VALID,102.0,VALID,0.0,
2018-12-03, 00:37:06,VALID,917.022,VALID,0.0,VALID,97.929,VALID,-0.004,VALID,19.908,VALID,104.0,VALID,0.0,
2018-12-03, 00:38:06,VALID,917.024,VALID,0.0,VALID,97.918,VALID,-0.008,VALID,19.924,VALID,97.0,VALID,0.0,
2018-12-03, 00:39:06,VALID,917.022,VALID,0.0,VALID,97.882,VALID,-0.009,VALID,19.927,VALID,94.0,VALID,0.0,
2018-12-03, 00:40:06,VALID,917.008,VALID,0.0,VALID,97.793,VALID,-0.009,VALID,19.937,VALID,82.0,VALID,0.0,
2018-12-03, 00:41:06,VALID,917.012,VALID,0.0,VALID,97.74,VALID,-0.01,VALID,19.947,VALID,97.0,VALID,0.0,
2018-12-03, 00:42:06,VALID,917.026,VALID,0.0,VALID,97.745,VALID,0.001,VALID,19.955,VALID,99.0,VALID,0.0,
2018-12-03, 00:43:06,VALID,917.011,VALID,0.0,VALID,97.721,VALID,-0.005,VALID,19.956,VALID,92.0,VALID,0.0,
2018-12-03, 00:44:06,VALID,917.024,VALID,0.0,VALID,97.769,VALID,-0.002,VALID,19.954,VALID,97.0,VALID,0.0,
2018-12-03, 00:45:06,VALID,917.021,VALID,0.0,VALID,97.84,VALID,-0.001,VALID,19.944,VALID,90.0,VALID,0.0,
2018-12-03, 00:46:06,VALID,917.014,VALID,0.0,VALID,97.908,VALID,-0.019,VALID,19.941,VALID,87.0,VALID,0.0,
2018-12-03, 00:47:06,VALID,917.023,VALID,0.0,VALID,97.921,VALID,-0.021,VALID,19.934,VALID,83.0,VALID,0.0,
2018-12-03, 00:48:06,VALID,917.035,VALID,0.0,VALID,97.942,VALID,-0.007,VALID,19.939,VALID,44.0,VALID,0.0,
2018-12-03, 00:49:06,VALID,917.041,VALID,0.0,VALID,97.982,VALID,0.001,VALID,19.94,VALID,46.0,VALID,0.0,
2018-12-03, 00:50:06,VALID,917.032,VALID,0.0,VALID,98.03,VALID,-0.024,VALID,19.942,VALID,44.0,VALID,0.0,
2018-12-03, 00:51:06,VALID,917.042,VALID,0.0,VALID,98.117,VALID,-0.025,VALID,19.952,VALID,14.0,VALID,0.0,
2018-12-03, 00:52:06,VALID,917.005,VALID,0.0,VALID,98.054,VALID,-0.031,VALID,19.925,VALID,20.0,VALID,0.0,
2018-12-03, 00:53:06,VALID,917.015,VALID,0.0,VALID,98.102,VALID,-0.019,VALID,19.932,VALID,29.0,VALID,0.0,
2018-12-03, 00:54:06,VALID,917.003,VALID,0.0,VALID,98.143,VALID,-0.016,VALID,19.942,VALID,28.0,VALID,0.0,
2018-12-03, 00:55:06,VALID,916.989,VALID,0.0,VALID,98.191,VALID,-0.005,VALID,19.948,VALID,18.0,VALID,0.0,
2018-12-03, 00:56:06,VALID,916.985,VALID,0.0,VALID,98.234,VALID,-0.008,VALID,19.93,VALID,328.0,VALID,0.0,
2018-12-03, 00:57:06,VALID,916.967,VALID,0.0,VALID,98.245,VALID,-0.009,VALID,19.878,VALID,318.0,VALID,0.0,
2018-12-03, 00:58:06,VALID,916.973,VALID,0.0,VALID,98.293,VALID,-0.006,VALID,19.845,VALID,318.0,VALID,0.0,
2018-12-03, 00:59:06,VALID,916.951,VALID,0.0,VALID,98.369,VALID,-0.01,VALID,19.828,VALID,318.0,VALID,0.0,
2018-12-03, 01:00:06,VALID,916.944,VALID,0.0,VALID,98.481,VALID,-0.003,VALID,19.836,VALID,318.0,VALID,0.0,
2018-12-03, 01:01:06,VALID,916.951,VALID,0.0,VALID,98.564,VALID,0.005,VALID,19.845,VALID,318.0,VALID,0.0,
2018-12-03, 01:02:06,VALID,916.937,VALID,0.0,VALID,98.607,VALID,0.001,VALID,19.841,VALID,318.0,VALID,0.0,
2018-12-03, 01:03:06,VALID,916.953,VALID,0.0,VALID,98.66,VALID,-0.004,VALID,19.831,VALID,318.0,VALID,0.0,
2018-12-03, 01:04:06,VALID,916.954,VALID,0.0,VALID,98.718,VALID,0.002,VALID,19.834,VALID,318.0,VALID,0.0,
2018-12-03, 01:05:06,VALID,916.957,VALID,0.0,VALID,98.724,VALID,-0.003,VALID,19.828,VALID,318.0,VALID,0.0,
2018-12-03, 01:06:06,VALID,916.957,VALID,0.0,VALID,98.763,VALID,0.015,VALID,19.824,VALID,318.0,VALID,0.0,
2018-12-03, 01:07:06,VALID,916.975,VALID,0.0,VALID,98.753,VALID,0.015,VALID,19.8,VALID,318.0,VALID,0.0,
2018-12-03, 01:08:06,VALID,916.955,VALID,0.0,VALID,98.752,VALID,-0.008,VALID,19.772,VALID,318.0,VALID,0.0,
2018-12-03, 01:09:06,VALID,916.962,VALID,0.0,VALID,98.802,VALID,0.003,VALID,19.776,VALID,323.0,VALID,0.0,
2018-12-03, 01:10:06,VALID,916.966,VALID,0.0,VALID,98.835,VALID,-0.001,VALID,19.786,VALID,41.0,VALID,0.0,
2018-12-03, 01:11:06,VALID,916.938,VALID,0.0,VALID,98.834,VALID,0.001,VALID,19.773,VALID,53.0,VALID,0.0,
2018-12-03, 01:12:06,VALID,916.955,VALID,0.0,VALID,98.834,VALID,-0.008,VALID,19.749,VALID,55.0,VALID,0.0,
2018-12-03, 01:13:06,VALID,916.951,VALID,0.0,VALID,98.874,VALID,-0.013,VALID,19.748,VALID,61.0,VALID,0.0,
2018-12-03, 01:14:06,VALID,916.956,VALID,0.0,VALID,98.887,VALID,-0.03,VALID,19.747,VALID,72.0,VALID,0.0,
2018-12-03, 01:15:06,VALID,916.944,VALID,0.0,VALID,98.918,VALID,-0.021,VALID,19.757,VALID,87.0,VALID,0.0,
2018-12-03, 01:16:06,VALID,916.963,VALID,0.0,VALID,98.938,VALID,-0.029,VALID,19.781,VALID,77.0,VALID,0.0,
2018-12-03, 01:17:06,VALID,916.985,VALID,0.0,VALID,98.948,VALID,-0.016,VALID,19.795,VALID,69.0,VALID,0.0,
2018-12-03, 01:18:06,VALID,916.987,VALID,0.0,VALID,98.909,VALID,-0.023,VALID,19.752,VALID,56.0,VALID,0.0,
2018-12-03, 01:19:06,VALID,917.002,VALID,0.0,VALID,98.926,VALID,-0.027,VALID,19.739,VALID,54.0,VALID,0.0,
2018-12-03, 01:20:06,VALID,917.005,VALID,0.0,VALID,98.927,VALID,-0.036,VALID,19.728,VALID,54.0,VALID,0.0,
2018-12-03, 01:21:06,VALID,917.035,VALID,0.0,VALID,98.962,VALID,-0.039,VALID,19.736,VALID,57.0,VALID,0.0,
2018-12-03, 01:22:06,VALID,917.029,VALID,0.0,VALID,98.943,VALID,-0.034,VALID,19.744,VALID,61.0,VALID,0.0,
2018-12-03, 01:23:06,VALID,917.036,VALID,0.0,VALID,98.929,VALID,-0.028,VALID,19.743,VALID,64.0,VALID,0.0,
2018-12-03, 01:24:06,VALID,917.03,VALID,0.0,VALID,98.898,VALID,-0.049,VALID,19.758,VALID,65.0,VALID,0.0,
2018-12-03, 01:25:06,VALID,917.032,VALID,0.0,VALID,98.878,VALID,0.002,VALID,19.764,VALID,67.0,VALID,0.0,
2018-12-03, 01:26:06,VALID,917.028,VALID,0.0,VALID,98.835,VALID,0.024,VALID,19.774,VALID,69.0,VALID,0.0,
2018-12-03, 01:27:06,VALID,917.027,VALID,0.0,VALID,98.772,VALID,0.033,VALID,19.786,VALID,70.0,VALID,0.0,
2018-12-03, 01:28:06,VALID,917.006,VALID,0.0,VALID,98.736,VALID,0.008,VALID,19.798,VALID,76.0,VALID,0.0,
2018-12-03, 01:29:06,VALID,917.0,VALID,0.0,VALID,98.679,VALID,0.011,VALID,19.816,VALID,80.0,VALID,0.0,
2018-12-03, 01:30:06,VALID,916.975,VALID,0.0,VALID,98.601,VALID,0.033,VALID,19.835,VALID,70.0,VALID,0.0,
2018-12-03, 01:31:06,VALID,916.969,VALID,0.0,VALID,98.531,VALID,0.006,VALID,19.846,VALID,66.0,VALID,0.0,
2018-12-03, 01:32:06,VALID,916.948,VALID,0.0,VALID,98.444,VALID,0.011,VALID,19.85,VALID,66.0,VALID,0.0,
2018-12-03, 01:33:06,VALID,916.948,VALID,0.0,VALID,98.396,VALID,0.032,VALID,19.855,VALID,66.0,VALID,0.0,
2018-12-03, 01:34:06,VALID,916.92,VALID,0.0,VALID,98.374,VALID,0.022,VALID,19.861,VALID,66.0,VALID,0.0,
2018-12-03, 01:35:06,VALID,916.916,VALID,0.0,VALID,98.339,VALID,0.015,VALID,19.863,VALID,66.0,VALID,0.0,
2018-12-03, 01:36:06,VALID,916.922,VALID,0.0,VALID,98.288,VALID,0.021,VALID,19.865,VALID,66.0,VALID,0.0,
2018-12-03, 01:37:06,VALID,916.924,VALID,0.0,VALID,98.235,VALID,0.036,VALID,19.872,VALID,66.0,VALID,0.0,
2018-12-03, 01:38:06,VALID,916.93,VALID,0.0,VALID,98.213,VALID,0.043,VALID,19.874,VALID,66.0,VALID,0.0,
2018-12-03, 01:39:06,VALID,916.922,VALID,0.0,VALID,98.201,VALID,0.03,VALID,19.887,VALID,66.0,VALID,0.0,
2018-12-03, 01:40:06,VALID,916.907,VALID,0.0,VALID,98.148,VALID,0.016,VALID,19.897,VALID,66.0,VALID,0.0,
2018-12-03, 01:41:06,VALID,916.904,VALID,0.0,VALID,98.195,VALID,0.008,VALID,19.927,VALID,66.0,VALID,0.0,
2018-12-03, 01:42:06,VALID,916.865,VALID,0.0,VALID,98.223,VALID,0.002,VALID,19.943,VALID,58.0,VALID,0.0,
2018-12-03, 01:43:06,VALID,916.853,VALID,0.0,VALID,98.246,VALID,0.007,VALID,19.941,VALID,322.0,VALID,0.0,
2018-12-03, 01:44:06,VALID,916.853,VALID,0.0,VALID,98.273,VALID,0.003,VALID,19.937,VALID,293.0,VALID,0.0,
2018-12-03, 01:45:06,VALID,916.85,VALID,0.0,VALID,98.344,VALID,0.019,VALID,19.914,VALID,271.0,VALID,0.0,
2018-12-03, 01:46:06,VALID,916.842,VALID,0.0,VALID,98.353,VALID,0.036,VALID,19.867,VALID,267.0,VALID,0.0,
2018-12-03, 01:47:06,VALID,916.839,VALID,0.0,VALID,98.417,VALID,0.02,VALID,19.838,VALID,277.0,VALID,0.0,
2018-12-03, 01:48:06,VALID,916.827,VALID,0.0,VALID,98.468,VALID,0.031,VALID,19.806,VALID,278.0,VALID,0.0,
2018-12-03, 01:49:06,VALID,916.831,VALID,0.0,VALID,98.549,VALID,0.019,VALID,19.796,VALID,279.0,VALID,0.0,
2018-12-03, 01:50:06,VALID,916.839,VALID,0.0,VALID,98.607,VALID,0.01,VALID,19.795,VALID,279.0,VALID,0.0,
2018-12-03, 01:51:06,VALID,916.851,VALID,0.0,VALID,98.688,VALID,0.006,VALID,19.801,VALID,279.0,VALID,0.0,
2018-12-03, 01:52:06,VALID,916.832,VALID,0.0,VALID,98.686,VALID,0.008,VALID,19.765,VALID,279.0,VALID,0.0,
2018-12-03, 01:53:06,VALID,916.814,VALID,0.0,VALID,98.743,VALID,-0.004,VALID,19.763,VALID,279.0,VALID,0.0,
2018-12-03, 01:54:06,VALID,916.805,VALID,0.0,VALID,98.801,VALID,0.005,VALID,19.792,VALID,279.0,VALID,0.0,
2018-12-03, 01:55:06,VALID,916.787,VALID,0.0,VALID,98.85,VALID,-0.0,VALID,19.796,VALID,279.0,VALID,0.0,
2018-12-03, 01:56:06,VALID,916.778,VALID,0.0,VALID,98.866,VALID,-0.006,VALID,19.799,VALID,278.0,VALID,0.0,
2018-12-03, 01:57:06,VALID,916.757,VALID,0.0,VALID,98.859,VALID,-0.0,VALID,19.778,VALID,278.0,VALID,0.0,
2018-12-03, 01:58:06,VALID,916.746,VALID,0.0,VALID,98.928,VALID,0.001,VALID,19.788,VALID,264.0,VALID,0.0,
2018-12-03, 01:59:06,VALID,916.728,VALID,0.0,VALID,98.919,VALID,0.007,VALID,19.778,VALID,257.0,VALID,0.0,
2018-12-03, 02:00:06,VALID,916.726,VALID,0.0,VALID,98.945,VALID,-0.0,VALID,19.759,VALID,245.0,VALID,0.0,
2018-12-03, 02:01:06,VALID,916.723,VALID,0.0,VALID,98.903,VALID,-0.002,VALID,19.719,VALID,238.0,VALID,0.0,
2018-12-03, 02:02:06,VALID,916.711,VALID,0.0,VALID,98.949,VALID,0.0,VALID,19.727,VALID,235.0,VALID,0.0,
2018-12-03, 02:03:06,VALID,916.708,VALID,0.0,VALID,98.953,VALID,0.001,VALID,19.716,VALID,226.0,VALID,0.0,
2018-12-03, 02:04:06,VALID,916.677,VALID,0.0,VALID,98.985,VALID,0.008,VALID,19.736,VALID,226.0,VALID,0.0,
2018-12-03, 02:05:06,VALID,916.701,VALID,0.0,VALID,98.989,VALID,-0.012,VALID,19.711,VALID,220.0,VALID,0.0,
2018-12-03, 02:06:06,VALID,916.674,VALID,0.0,VALID,99.024,VALID,-0.005,VALID,19.723,VALID,219.0,VALID,0.0,
2018-12-03, 02:07:06,VALID,916.68,VALID,0.0,VALID,99.035,VALID,-0.004,VALID,19.725,VALID,218.0,VALID,0.0,
2018-12-03, 02:08:06,VALID,916.653,VALID,0.0,VALID,99.032,VALID,0.003,VALID,19.726,VALID,218.0,VALID,0.0,
2018-12-03, 02:09:06,VALID,916.67,VALID,0.0,VALID,99.039,VALID,-0.004,VALID,19.719,VALID,218.0,VALID,0.0,
2018-12-03, 02:10:06,VALID,916.659,VALID,0.0,VALID,99.055,VALID,-0.018,VALID,19.728,VALID,218.0,VALID,0.0,
2018-12-03, 02:11:06,VALID,916.637,VALID,0.0,VALID,99.056,VALID,-0.032,VALID,19.723,VALID,218.0,VALID,0.0,
2018-12-03, 02:12:06,VALID,916.62,VALID,0.0,VALID,99.067,VALID,-0.026,VALID,19.713,VALID,218.0,VALID,0.0,
2018-12-03, 02:13:06,VALID,916.598,VALID,0.0,VALID,99.067,VALID,-0.044,VALID,19.717,VALID,218.0,VALID,0.0,
2018-12-03, 02:14:06,VALID,916.571,VALID,0.0,VALID,99.093,VALID,-0.009,VALID,19.726,VALID,218.0,VALID,0.0,
2018-12-03, 02:15:06,VALID,916.536,VALID,0.0,VALID,99.101,VALID,-0.006,VALID,19.726,VALID,218.0,VALID,0.0,
2018-12-03, 02:16:06,VALID,916.546,VALID,0.0,VALID,99.093,VALID,-0.002,VALID,19.724,VALID,218.0,VALID,0.0,
2018-12-03, 02:17:06,VALID,916.527,VALID,0.0,VALID,99.102,VALID,-0.006,VALID,19.71,VALID,218.0,VALID,0.0,
2018-12-03, 02:18:06,VALID,916.52,VALID,0.0,VALID,99.1,VALID,-0.017,VALID,19.697,VALID,216.0,VALID,0.0,
2018-12-03, 02:19:06,VALID,916.479,VALID,0.0,VALID,99.151,VALID,-0.01,VALID,19.7,VALID,199.0,VALID,0.0,
2018-12-03, 02:20:06,VALID,916.465,VALID,0.0,VALID,99.12,VALID,-0.021,VALID,19.698,VALID,197.0,VALID,0.0,
2018-12-03, 02:21:06,VALID,916.446,VALID,0.0,VALID,99.112,VALID,-0.017,VALID,19.682,VALID,197.0,VALID,0.0,
2018-12-03, 02:22:06,VALID,916.426,VALID,0.0,VALID,99.095,VALID,-0.017,VALID,19.664,VALID,153.0,VALID,0.0,
2018-12-03, 02:23:06,VALID,916.428,VALID,0.0,VALID,99.097,VALID,-0.032,VALID,19.649,VALID,117.0,VALID,0.0,
2018-12-03, 02:24:06,VALID,916.398,VALID,0.0,VALID,99.117,VALID,-0.029,VALID,19.64,VALID,108.0,VALID,0.0,
2018-12-03, 02:25:06,VALID,916.366,VALID,0.0,VALID,99.132,VALID,-0.006,VALID,19.646,VALID,104.0,VALID,0.0,
2018-12-03, 02:26:06,VALID,916.332,VALID,0.0,VALID,99.135,VALID,-0.027,VALID,19.659,VALID,103.0,VALID,0.0,
2018-12-03, 02:27:06,VALID,916.325,VALID,0.0,VALID,99.154,VALID,-0.03,VALID,19.674,VALID,103.0,VALID,0.0,
2018-12-03, 02:28:06,VALID,916.29,VALID,0.0,VALID,99.169,VALID,-0.019,VALID,19.683,VALID,103.0,VALID,0.0,
2018-12-03, 02:29:06,VALID,916.253,VALID,0.0,VALID,99.143,VALID,-0.024,VALID,19.681,VALID,111.0,VALID,0.0,
2018-12-03, 02:30:06,VALID,916.247,VALID,0.0,VALID,99.153,VALID,-0.007,VALID,19.677,VALID,124.0,VALID,0.0,
2018-12-03, 02:31:06,VALID,916.234,VALID,0.0,VALID,99.148,VALID,-0.021,VALID,19.666,VALID,129.0,VALID,0.0,
2018-12-03, 02:32:06,VALID,916.219,VALID,0.0,VALID,99.126,VALID,-0.02,VALID,19.659,VALID,116.0,VALID,0.0,
2018-12-03, 02:33:06,VALID,916.182,VALID,0.0,VALID,99.12,VALID,-0.021,VALID,19.652,VALID,106.0,VALID,0.0,
2018-12-03, 02:34:06,VALID,916.189,VALID,0.0,VALID,99.106,VALID,-0.007,VALID,19.639,VALID,107.0,VALID,0.0,
2018-12-03, 02:35:06,VALID,916.18,VALID,0.0,VALID,99.132,VALID,-0.015,VALID,19.632,VALID,110.0,VALID,0.0,
2018-12-03, 02:36:06,VALID,916.185,VALID,0.0,VALID,99.116,VALID,-0.008,VALID,19.629,VALID,113.0,VALID,0.0,
2018-12-03, 02:37:06,VALID,916.17,VALID,0.0,VALID,99.129,VALID,-0.007,VALID,19.61,VALID,119.0,VALID,0.0,
2018-12-03, 02:38:06,VALID,916.156,VALID,0.0,VALID,99.149,VALID,-0.003,VALID,19.614,VALID,121.0,VALID,0.0,
2018-12-03, 02:39:06,VALID,916.153,VALID,0.0,VALID,99.141,VALID,0.002,VALID,19.617,VALID,125.0,VALID,0.0,
2018-12-03, 02:40:06,VALID,916.14,VALID,0.0,VALID,99.15,VALID,-0.005,VALID,19.62,VALID,126.0,VALID,0.0,
2018-12-03, 02:41:06,VALID,916.118,VALID,0.0,VALID,99.151,VALID,-0.012,VALID,19.631,VALID,129.0,VALID,0.0,
2018-12-03, 02:42:06,VALID,916.117,VALID,0.0,VALID,99.174,VALID,-0.019,VALID,19.645,VALID,135.0,VALID,0.0,
2018-12-03, 02:43:06,VALID,916.09,VALID,0.0,VALID,99.196,VALID,-0.022,VALID,19.675,VALID,133.0,VALID,0.0,
2018-12-03, 02:44:06,VALID,916.079,VALID,0.0,VALID,99.169,VALID,-0.025,VALID,19.668,VALID,144.0,VALID,0.0,
2018-12-03, 02:45:06,VALID,916.059,VALID,0.0,VALID,99.168,VALID,-0.019,VALID,19.667,VALID,145.0,VALID,0.0,
2018-12-03, 02:46:06,VALID,916.058,VALID,0.0,VALID,99.169,VALID,-0.017,VALID,19.675,VALID,127.0,VALID,0.0,
2018-12-03, 02:47:06,VALID,916.03,VALID,0.0,VALID,99.181,VALID,-0.01,VALID,19.672,VALID,130.0,VALID,0.0,
2018-12-03, 02:48:06,VALID,916.026,VALID,0.0,VALID,99.172,VALID,-0.006,VALID,19.661,VALID,142.0,VALID,0.0,
2018-12-03, 02:49:06,VALID,916.007,VALID,0.0,VALID,99.178,VALID,0.007,VALID,19.656,VALID,134.0,VALID,0.0,
2018-12-03, 02:50:06,VALID,915.981,VALID,0.0,VALID,99.174,VALID,-0.005,VALID,19.655,VALID,128.0,VALID,0.0,
2018-12-03, 02:51:06,VALID,915.974,VALID,0.0,VALID,99.173,VALID,-0.01,VALID,19.66,VALID,140.0,VALID,0.0,
2018-12-03, 02:52:06,VALID,915.945,VALID,0.0,VALID,99.195,VALID,-0.013,VALID,19.68,VALID,146.0,VALID,0.0,
2018-12-03, 02:53:06,VALID,915.935,VALID,0.0,VALID,99.212,VALID,-0.016,VALID,19.687,VALID,164.0,VALID,0.0,
2018-12-03, 02:54:06,VALID,915.917,VALID,0.0,VALID,99.205,VALID,-0.032,VALID,19.696,VALID,170.0,VALID,0.0,
2018-12-03, 02:55:06,VALID,915.925,VALID,0.0,VALID,99.202,VALID,-0.011,VALID,19.692,VALID,133.0,VALID,0.0,
2018-12-03, 02:56:06,VALID,915.91,VALID,0.0,VALID,99.218,VALID,-0.011,VALID,19.694,VALID,140.0,VALID,0.0,
2018-12-03, 02:57:06,VALID,915.898,VALID,0.0,VALID,99.224,VALID,0.01,VALID,19.695,VALID,146.0,VALID,0.0,
2018-12-03, 02:58:06,VALID,915.882,VALID,0.0,VALID,99.217,VALID,0.002,VALID,19.691,VALID,149.0,VALID,0.0,
2018-12-03, 02:59:06,VALID,915.869,VALID,0.0,VALID,99.224,VALID,-0.014,VALID,19.683,VALID,134.0,VALID,0.0,
2018-12-03, 03:00:06,VALID,915.891,VALID,0.0,VALID,99.228,VALID,0.005,VALID,19.684,VALID,140.0,VALID,0.0,
2018-12-03, 03:01:06,VALID,915.857,VALID,0.0,VALID,99.226,VALID,0.008,VALID,19.696,VALID,136.0,VALID,0.0,
2018-12-03, 03:02:06,VALID,915.835,VALID,0.0,VALID,99.202,VALID,0.018,VALID,19.704,VALID,132.0,VALID,0.0,
2018-12-03, 03:03:06,VALID,915.831,VALID,0.0,VALID,99.205,VALID,0.013,VALID,19.714,VALID,137.0,VALID,0.0,
2018-12-03, 03:04:06,VALID,915.813,VALID,0.0,VALID,99.173,VALID,0.02,VALID,19.727,VALID,129.0,VALID,0.0,
2018-12-03, 03:05:06,VALID,915.807,VALID,0.0,VALID,99.15,VALID,0.004,VALID,19.729,VALID,141.0,VALID,0.0,
2018-12-03, 03:06:06,VALID,915.779,VALID,0.0,VALID,99.132,VALID,-0.005,VALID,19.722,VALID,125.0,VALID,0.0,
2018-12-03, 03:07:06,VALID,915.765,VALID,0.0,VALID,99.09,VALID,0.012,VALID,19.736,VALID,162.0,VALID,0.0,
2018-12-03, 03:08:06,VALID,915.751,VALID,0.0,VALID,99.056,VALID,0.008,VALID,19.727,VALID,126.0,VALID,0.0,
2018-12-03, 03:09:06,VALID,915.73,VALID,0.0,VALID,99.003,VALID,0.003,VALID,19.714,VALID,123.0,VALID,0.0,
2018-12-03, 03:10:06,VALID,915.723,VALID,0.0,VALID,98.927,VALID,-0.009,VALID,19.731,VALID,128.0,VALID,0.0,
2018-12-03, 03:11:06,VALID,915.72,VALID,0.0,VALID,98.823,VALID,0.001,VALID,19.751,VALID,134.0,VALID,0.0,
2018-12-03, 03:12:06,VALID,915.725,VALID,0.0,VALID,98.77,VALID,-0.016,VALID,19.761,VALID,127.0,VALID,0.0,
2018-12-03, 03:13:06,VALID,915.728,VALID,0.0,VALID,98.668,VALID,-0.013,VALID,19.753,VALID,120.0,VALID,0.0,
2018-12-03, 03:14:06,VALID,915.725,VALID,0.0,VALID,98.558,VALID,-0.011,VALID,19.763,VALID,127.0,VALID,0.0,
2018-12-03, 03:15:06,VALID,915.712,VALID,0.0,VALID,98.467,VALID,0.0,VALID,19.783,VALID,126.0,VALID,0.0,
2018-12-03, 03:16:06,VALID,915.72,VALID,0.0,VALID,98.375,VALID,-0.01,VALID,19.78,VALID,134.0,VALID,0.0,
2018-12-03, 03:17:06,VALID,915.718,VALID,0.0,VALID,98.361,VALID,-0.007,VALID,19.778,VALID,130.0,VALID,0.0,
2018-12-03, 03:18:06,VALID,915.717,VALID,0.0,VALID,98.325,VALID,-0.001,VALID,19.771,VALID,122.0,VALID,0.0,
2018-12-03, 03:19:06,VALID,915.719,VALID,0.0,VALID,98.304,VALID,-0.016,VALID,19.771,VALID,124.0,VALID,0.0,
2018-12-03, 03:20:06,VALID,915.708,VALID,0.0,VALID,98.226,VALID,-0.023,VALID,19.781,VALID,127.0,VALID,0.0,
2018-12-03, 03:21:06,VALID,915.697,VALID,0.0,VALID,98.18,VALID,-0.006,VALID,19.781,VALID,124.0,VALID,0.0,
2018-12-03, 03:22:06,VALID,915.696,VALID,0.0,VALID,98.136,VALID,-0.003,VALID,19.78,VALID,125.0,VALID,0.0,
2018-12-03, 03:23:06,VALID,915.656,VALID,0.0,VALID,98.121,VALID,0.001,VALID,19.788,VALID,136.0,VALID,0.0,
2018-12-03, 03:24:06,VALID,915.657,VALID,0.0,VALID,98.088,VALID,0.003,VALID,19.811,VALID,123.0,VALID,0.0,
2018-12-03, 03:25:06,VALID,915.668,VALID,0.0,VALID,97.951,VALID,-0.015,VALID,19.809,VALID,119.0,VALID,0.0,
2018-12-03, 03:26:06,VALID,915.665,VALID,0.0,VALID,97.883,VALID,-0.005,VALID,19.835,VALID,123.0,VALID,0.0,
2018-12-03, 03:27:06,VALID,915.611,VALID,0.0,VALID,97.757,VALID,0.007,VALID,19.875,VALID,133.0,VALID,0.0,
2018-12-03, 03:28:06,VALID,915.624,VALID,0.0,VALID,97.58,VALID,-0.002,VALID,19.901,VALID,115.0,VALID,0.0,
2018-12-03, 03:29:06,VALID,915.618,VALID,0.0,VALID,97.38,VALID,0.007,VALID,19.938,VALID,109.0,VALID,0.0,
2018-12-03, 03:30:06,VALID,915.614,VALID,0.0,VALID,97.175,VALID,0.003,VALID,19.959,VALID,102.0,VALID,0.0,
2018-12-03, 03:31:06,VALID,915.614,VALID,0.0,VALID,97.028,VALID,-0.009,VALID,19.968,VALID,103.0,VALID,0.0,
2018-12-03, 03:32:06,VALID,915.609,VALID,0.0,VALID,96.928,VALID,-0.004,VALID,19.965,VALID,102.0,VALID,0.0,
2018-12-03, 03:33:06,VALID,915.612,VALID,0.0,VALID,96.836,VALID,-0.013,VALID,19.982,VALID,100.0,VALID,0.0,
2018-12-03, 03:34:06,VALID,915.599,VALID,0.0,VALID,96.671,VALID,-0.006,VALID,20.008,VALID,106.0,VALID,0.0,
2018-12-03, 03:35:06,VALID,915.597,VALID,0.0,VALID,96.569,VALID,0.0,VALID,20.006,VALID,110.0,VALID,0.0,
2018-12-03, 03:36:06,VALID,915.607,VALID,0.0,VALID,96.609,VALID,0.005,VALID,19.989,VALID,103.0,VALID,0.0,
2018-12-03, 03:37:06,VALID,915.599,VALID,0.0,VALID,96.517,VALID,-0.009,VALID,19.998,VALID,104.0,VALID,0.0,
2018-12-03, 03:38:06,VALID,915.575,VALID,0.0,VALID,96.246,VALID,-0.001,VALID,20.039,VALID,106.0,VALID,0.0,
2018-12-03, 03:39:06,VALID,915.566,VALID,0.0,VALID,96.031,VALID,-0.004,VALID,20.065,VALID,106.0,VALID,0.0,
2018-12-03, 03:40:06,VALID,915.577,VALID,0.0,VALID,95.928,VALID,-0.023,VALID,20.06,VALID,106.0,VALID,0.0,
2018-12-03, 03:41:06,VALID,915.575,VALID,0.0,VALID,95.917,VALID,-0.017,VALID,20.042,VALID,101.0,VALID,0.0,
2018-12-03, 03:42:06,VALID,915.591,VALID,0.0,VALID,95.937,VALID,-0.023,VALID,20.033,VALID,104.0,VALID,0.0,